Temp
17 17 17 17 17 17 17 17 17 17 16 16 16 16 15 15 14 14 14 14 14 13 13 13 13 13 12 12 12 11 11 11 11 10 10 10 10 10 10 10 10 10
17 17 17 17 17 17 17 17 17 17 16 16 16 16 16 15 14 14 14 14 14 13 13 13 13 13 12 12 12 11 11 11 10 10 10 10 10 10 10 10 10 10
17 17 17 17 17 17 17 17 16 16 16 16 16 16 15 15 14 14 14 14 14 13 13 13 13 13 12 12 11 11 11 10 10 10 10 10 10 10 10 10 10 10
17 17 17 17 17 17 17 17 17 16 16 16 16 16 15 15 14 14 14 14 13 13 13 13 13 12 12 12 11 11 10 10 10 10 10 10 10 10 10 10 9 9
16 17 17 17 17 17 17 17 17 17 16 16 16 16 15 15 14 14 14 14 13 13 13 13 12 12 12 11 11 10 10 10 10 10 10 10 10 10 9 9 9 9
16 16 16 17 17 17 17 17 17 17 16 16 16 16 15 15 14 14 14 13 13 13 13 13 12 12 11 11 11 10 10 10 10 10 10 10 10 9 9 9 9 9
16 16 16 16 16 17 17 17 17 17 16 16 16 16 15 15 14 14 14 13 13 13 13 13 12 12 11 11 10 10 10 10 10 10 10 10 9 9 9 9 9 9
15 16 16 16 16 16 16 17 17 16 16 16 16 15 15 15 14 14 14 13 13 13 13 12 12 11 11 10 10 10 10 10 10 10 10 9 9 9 9 9 9 9
15 15 15 16 16 16 16 16 16 16 16 16 15 15 15 14 14 14 14 13 13 13 12 12 12 11 11 10 10 10 10 10 10 9 9 9 9 9 9 8 8 8
15 15 15 15 15 16 16 16 16 16 16 15 15 15 15 14 14 14 13 13 13 13 12 12 11 11 11 11 10 10 10 10 9 9 9 9 8 8 8 8 8 8
14 15 15 15 15 15 16 16 16 16 15 15 15 15 14 14 13 13 13 13 13 12 12 11 11 11 11 10 10 10 10 9 9 9 8 8 8 8 8 8 7 7
14 14 14 15 15 15 15 15 15 15 15 14 14 14 14 14 13 13 13 13 12 12 11 11 11 11 10 10 10 10 9 9 8 8 8 8 8 8 7 7 7 7
13 13 13 14 14 14 14 14 15 15 15 14 14 14 14 13 13 13 13 12 12 11 11 11 11 10 10 10 9 9 8 8 8 8 8 7 7 7 7 7 6 6
13 13 13 13 13 13 13 13 13 14 14 14 14 14 14 13 13 13 12 12 11 11 11 10 10 10 9 9 8 8 8 8 7 7 7 7 6 6 6 6 6 6
13 13 12 12 13 13 12 12 12 12 13 13 13 14 13 13 13 13 12 11 11 11 10 10 9 9 8 8 8 7 7 7 7 7 6 6 6 6 6 5 5 5
13 13 12 12 13 13 13 12 12 12 12 13 13 13 13 13 12 12 11 11 11 10 10 9 8 8 7 7 7 7 7 7 6 6 6 5 5 5 5 5 4 4
12 12 12 12 13 13 13 12 11 12 12 13 13 12 12 12 12 11 11 11 10 10 9 8 8 7 7 7 7 7 6 6 6 6 5 5 5 4 4 4 4 3
12 12 12 12 12 12 12 11 11 12 12 12 12 12 12 11 11 11 11 10 10 9 8 8 8 7 7 7 7 6 6 6 5 5 5 4 4 4 3 3 3 3
12 11 11 12 12 12 11 11 11 11 11 11 11 11 11 11 11 10 10 9 9 8 8 8 7 7 7 7 6 6 6 6 5 5 4 4 4 3 3 3 3 2
11 11 11 11 11 11 10 10 10 11 11 11 11 11 11 10 10 10 9 8 8 8 8 8 7 7 7 6 6 6 5 5 5 4 4 4 3 3 3 2 2 2
10 11 11 10 10 10 10 10 10 10 10 11 11 10 10 10 9 9 8 8 8 8 8 7 7 6 6 6 5 5 5 5 5 4 4 3 3 3 2 2 1 1
10 10 10 10 10 10 9 10 10 10 10 10 10 10 10 9 9 8 8 8 8 8 7 7 6 6 6 5 5 5 5 4 4 3 3 2 2 2 1 1 1 0
10 10 10 10 9 9 9 10 10 10 10 10 10 9 9 8 8 8 8 8 7 7 7 6 6 6 5 5 5 5 4 4 3 3 2 1 1 1 1 0 0 -0
10 9 9 9 9 9 9 9 10 10 10 10 10 9 8 8 8 8 7 7 7 7 6 6 6 6 5 5 5 4 4 3 2 2 1 1 0 0 -0 -0 -0 -0
9 9 9 9 8 8 7 7 7 8 9 10 9 9 8 8 8 7 7 7 6 6 6 6 6 6 5 5 4 4 4 3 2 1 1 0 -0 -0 -1 -1 -1 -0
9 8 8 8 8 8 7 7 7 7 8 9 9 8 8 8 7 7 7 6 6 6 6 6 6 5 5 5 4 4 3 3 2 1 1 0 -0 -1 -1 -1 -1 -1
Height
801 803 804 805 806 807 808 808 809 811 812 813 815 816 817 818 819 819 820 821 821 822 822 822 823 823 823 824 824 824 825 825 825 825 825 825 825 824 825 825 825 825
799 801 802 803 804 805 806 807 808 809 810 812 813 814 816 816 817 818 819 820 820 821 821 822 822 822 823 823 824 824 825 825 825 825 825 825 825 825 825 825 825 825
797 799 800 801 802 803 804 806 807 808 809 810 811 813 814 815 816 817 818 819 819 820 820 821 821 821 822 822 823 823 824 824 825 825 825 825 825 825 825 825 825 825
795 797 798 799 800 802 803 804 805 806 807 808 809 811 812 813 814 815 816 817 818 818 819 819 820 820 821 821 822 823 823 823 824 824 824 825 825 825 825 825 825 825
794 795 797 798 799 800 801 802 803 804 805 806 808 809 810 811 812 813 815 816 816 817 817 818 819 819 820 820 821 822 822 822 823 823 823 823 824 824 824 824 824 824
792 794 795 797 798 799 800 800 801 802 803 804 806 807 808 809 810 812 813 814 815 815 816 816 817 818 818 819 820 821 821 821 822 822 822 822 822 822 822 822 822 822
790 791 793 795 796 797 798 798 799 800 801 803 804 805 807 807 809 810 811 813 813 814 815 815 816 817 817 818 819 819 820 820 821 821 821 821 821 821 821 820 820 820
787 789 790 791 793 794 795 796 797 798 799 801 802 803 805 806 808 809 810 811 812 813 813 814 815 815 816 816 817 818 819 819 819 820 820 820 820 820 820 819 819 818
784 786 787 788 789 790 791 792 794 795 797 798 800 802 804 805 807 808 809 810 811 812 812 813 814 814 815 815 816 816 817 817 818 818 818 819 819 819 818 818 817 817
782 782 784 786 787 787 788 790 791 793 794 796 798 799 801 803 805 807 808 809 810 811 812 812 813 813 814 814 815 815 815 815 816 816 816 817 817 817 817 817 816 816
778 779 780 781 783 784 785 787 788 790 792 793 796 797 799 801 803 805 806 807 809 810 811 812 812 813 813 813 814 814 814 814 814 814 815 815 815 815 815 815 814 814
774 776 777 777 778 780 781 783 785 786 788 791 793 795 797 799 801 802 804 806 807 808 809 810 811 812 812 813 813 813 813 813 813 813 813 813 813 813 812 812 812 811
773 774 775 775 776 777 778 780 780 781 784 787 790 792 795 797 799 801 802 804 805 807 808 809 810 811 811 811 812 812 812 812 811 811 811 811 810 810 810 809 809 808
772 773 774 775 776 777 777 778 779 780 781 783 786 789 792 795 797 799 801 802 804 805 806 807 808 809 810 810 810 810 810 810 810 809 809 808 808 807 807 806 806 805
770 771 771 773 774 774 775 776 779 782 784 785 787 788 791 794 796 797 799 801 802 804 805 806 807 808 808 808 808 808 808 808 808 808 807 806 805 805 804 803 802 802
768 768 769 770 770 771 771 773 776 779 782 786 788 789 791 793 795 796 798 799 801 802 803 805 805 806 806 806 807 806 807 807 806 806 806 805 803 802 801 800 799 798
766 766 766 766 767 768 769 771 773 775 778 781 783 787 790 792 794 796 797 798 799 800 801 803 803 804 804 805 805 805 805 805 804 804 804 803 802 800 798 797 796 795
764 764 764 764 765 766 767 769 771 774 776 777 779 783 787 789 792 794 796 797 797 798 799 801 802 803 803 803 803 803 802 802 802 802 801 800 799 798 796 794 793 792
762 762 762 762 763 764 765 767 770 771 773 775 777 781 783 785 789 793 795 796 797 797 798 799 800 801 801 801 800 800 800 799 799 799 798 797 796 795 793 792 790 788
760 760 760 760 761 762 763 765 767 769 771 773 775 778 781 783 786 791 795 796 796 797 797 798 799 799 799 799 798 798 797 796 796 795 795 794 793 792 790 789 787 786
757 757 757 758 759 760 761 763 765 767 770 771 774 777 780 782 785 790 793 795 796 796 796 797 798 798 798 798 797 796 795 794 793 792 791 791 790 789 787 785 784 783
754 754 755 756 757 758 760 761 763 765 767 769 772 776 780 783 786 789 792 794 794 795 795 796 797 797 797 796 796 795 793 792 791 789 788 787 786 785 783 782 781 779
751 751 752 753 755 756 758 759 761 763 766 767 770 774 779 782 786 788 790 792 793 793 794 795 795 796 795 794 794 793 792 790 788 787 785 784 783 782 780 779 777 776
748 748 749 751 753 755 756 758 759 761 763 766 769 773 778 782 785 787 789 790 791 792 793 794 794 794 793 793 792 792 790 788 787 785 783 782 780 779 777 775 773 772
744 745 747 749 751 754 756 758 760 761 762 765 770 774 778 781 784 786 788 789 790 791 791 792 792 792 792 791 791 790 789 787 785 784 782 780 778 775 773 772 770 768
741 743 745 746 749 752 754 758 764 767 768 770 773 776 779 782 784 786 787 788 788 789 789 790 790 790 790 789 789 788 787 785 784 782 780 778 776 773 770 768 767 765
Wind_Speed
27 25 23 22 21 20 19 17 16 15 14 13 11 9 9 10 9 7 6 5 4 2 0 2 4 4 4 5 6 8 10 10 11 11 10 10 10 10 11 10 10 10
29 27 25 24 23 22 21 19 18 17 15 14 12 10 10 10 10 9 8 7 6 4 1 1 2 3 3 3 5 7 8 9 9 9 9 10 10 10 11 12 12 12
30 29 27 26 25 24 22 21 20 19 17 15 14 13 12 12 11 10 10 9 7 5 3 2 2 1 1 2 4 5 6 8 8 8 8 8 9 10 11 12 12 12
32 31 30 29 27 25 24 22 22 21 20 19 17 15 14 14 13 12 12 11 9 7 5 3 2 1 1 1 3 4 5 6 7 7 7 7 8 9 10 11 12 12
33 32 31 30 29 27 26 25 24 23 22 21 19 18 17 16 15 15 14 12 10 8 6 4 2 2 2 2 2 3 4 5 5 5 5 6 7 8 9 10 11 11
34 33 32 32 30 29 28 28 27 25 24 23 21 20 19 18 17 16 15 13 11 9 7 5 3 3 2 1 1 2 3 4 4 4 4 4 5 7 9 10 11 12
35 35 34 33 32 31 31 30 29 28 27 25 23 22 21 20 19 17 16 14 12 10 8 6 4 3 2 1 1 2 4 5 5 6 6 6 7 8 9 11 12 13
36 36 36 35 34 33 33 32 31 30 29 27 25 24 22 21 20 18 16 15 13 11 8 6 5 3 2 2 3 4 6 7 7 7 7 7 8 9 10 11 13 15
36 36 36 35 36 36 36 35 34 32 31 29 26 24 23 21 20 19 17 15 13 11 8 6 5 4 3 4 5 6 7 8 8 8 7 7 8 9 11 13 15 17
36 37 36 36 36 38 38 37 35 34 32 30 27 24 23 22 20 18 17 15 13 11 9 7 6 5 5 6 6 7 8 8 8 7 7 8 9 11 12 14 16 18
35 36 36 37 38 39 39 39 37 35 32 29 26 24 23 22 20 19 17 15 13 11 9 8 6 6 6 7 7 8 9 8 7 8 9 10 11 13 14 15 17 18
34 35 36 38 39 39 39 39 37 35 32 29 27 25 23 22 21 19 17 15 13 11 9 8 7 7 7 7 7 7 7 7 8 9 11 12 14 15 16 17 18 19
31 32 33 34 35 36 37 38 38 37 33 30 28 25 24 23 22 19 17 15 13 11 10 9 8 8 7 6 5 6 6 8 9 11 13 15 16 17 18 19 20 20
26 27 28 29 30 31 32 34 35 34 33 31 29 26 25 24 22 19 17 15 13 11 10 9 9 8 6 5 4 5 7 9 11 14 16 18 19 20 20 21 21 21
25 26 25 26 27 29 30 30 29 28 29 28 27 25 24 23 21 19 17 15 13 11 11 10 9 7 5 4 4 6 8 11 13 15 18 20 21 22 23 23 23 22
24 24 24 25 27 29 31 30 28 28 27 26 25 25 24 22 19 17 16 14 14 13 12 11 9 7 5 4 5 7 10 12 15 17 18 20 22 23 24 24 24 23
23 23 23 25 26 28 29 28 27 28 29 29 28 26 24 21 18 17 16 15 14 14 13 11 9 6 4 4 6 8 11 14 16 18 19 20 21 22 24 25 24 24
22 23 24 25 25 26 27 27 26 28 30 31 30 27 25 22 19 17 17 16 16 15 13 10 7 5 4 5 7 10 13 16 18 19 21 21 22 23 23 24 25 26
21 23 24 25 24 24 25 25 26 29 31 31 30 28 26 23 20 18 18 17 16 14 12 8 5 4 5 6 9 11 14 18 21 22 22 23 23 23 24 24 25 26
20 22 24 24 23 23 23 25 28 31 32 30 29 27 25 23 21 19 18 17 15 12 9 6 4 4 5 7 10 13 17 20 23 24 24 24 24 24 25 25 26 26
20 22 23 23 22 22 24 27 29 31 31 30 28 26 23 21 21 20 18 15 12 9 6 4 3 4 6 9 12 16 20 23 26 26 26 25 25 25 25 26 25 25
21 22 22 22 22 23 26 28 31 32 31 30 27 23 21 20 20 20 17 13 9 6 3 2 3 5 7 10 14 18 22 26 28 28 27 26 27 27 26 26 25 25
22 22 23 23 24 25 28 31 33 33 31 29 27 24 23 22 20 18 14 9 6 3 2 2 4 5 8 11 14 19 24 27 28 28 27 28 28 27 27 26 25 24
22 23 24 24 25 26 29 32 34 34 32 29 27 26 24 22 18 14 10 6 3 2 1 3 4 6 9 12 15 20 25 27 28 27 27 28 29 28 27 25 24 24
22 23 25 25 25 25 25 24 25 28 30 28 27 26 23 19 15 11 8 5 3 1 2 3 6 8 10 12 15 21 25 27 27 27 27 28 28 27 26 24 23 24
21 23 25 26 27 28 26 23 21 23 24 24 23 22 19 16 12 8 6 4 2 1 3 5 8 10 11 13 16 21 25 27 26 27 28 28 26 26 26 25 24 24
Wind_Direction
224 225 225 222 221 222 221 218 216 216 215 213 212 206 194 189 191 198 209 212 208 212 331 15 8 11 31 49 53 50 44 37 34 33 30 28 25 22 19 17 15 10
225 228 228 225 224 224 224 224 223 223 222 220 220 217 207 202 203 208 213 212 212 218 225 314 334 355 19 40 50 48 41 35 31 30 29 26 23 20 15 10 6 3
225 228 229 228 228 228 228 227 227 229 228 226 225 222 217 213 211 211 211 212 214 217 220 254 299 340 29 46 49 40 31 28 26 25 24 20 17 14 11 6 2 358
226 228 230 232 232 233 233 232 231 230 229 228 227 225 222 218 214 211 211 213 215 213 218 236 249 201 153 99 58 39 24 20 19 18 19 14 9 7 5 2 1 359
231 231 233 234 235 236 236 236 235 233 230 230 228 226 225 220 215 213 212 214 215 215 222 226 213 185 165 122 70 39 20 14 11 8 9 9 4 359 355 352 351 353
233 235 235 236 237 238 239 240 239 237 234 234 231 227 226 222 219 216 215 216 219 223 229 230 215 194 173 123 62 17 360 357 351 347 348 349 344 338 336 336 338 340
235 236 236 237 238 239 241 243 242 241 239 237 235 230 226 223 220 219 219 222 226 231 235 238 228 211 197 230 314 328 334 335 331 328 326 324 324 328 333 337 337 337
236 237 237 237 237 239 241 242 243 243 241 239 236 232 226 224 222 221 222 226 231 236 240 242 238 229 234 268 299 313 323 328 326 323 322 322 326 331 334 335 333 331
236 237 238 238 237 237 240 242 243 242 241 240 237 232 226 223 222 221 222 227 233 238 242 242 241 243 259 283 296 307 318 324 324 323 323 323 326 328 329 328 327 327
237 237 237 238 239 238 239 241 242 242 240 239 236 230 224 220 219 219 221 225 229 235 239 240 245 257 276 289 293 305 318 322 320 316 316 318 320 322 323 323 323 323
237 237 235 236 239 239 239 240 240 240 238 236 232 227 222 216 213 214 217 222 225 228 231 234 246 261 274 282 292 305 312 311 308 306 309 313 316 317 318 319 319 318
238 237 235 236 238 238 238 238 237 237 234 231 227 223 218 214 212 212 215 218 219 219 221 228 239 251 261 272 286 298 301 300 301 304 306 308 309 312 314 314 314 314
241 239 238 238 238 238 238 237 235 233 230 226 223 219 215 211 209 210 213 214 215 214 218 227 234 239 246 257 271 282 290 298 302 304 306 307 309 311 312 312 311 310
248 246 244 241 241 241 240 238 235 232 227 221 215 211 211 209 207 207 209 209 211 214 219 223 224 224 226 234 253 274 288 296 302 306 309 310 311 311 310 309 308 307
253 251 248 245 245 244 243 240 236 232 225 216 209 206 206 206 206 206 206 205 206 211 214 212 207 204 206 226 255 282 297 304 308 310 311 311 310 308 308 307 305 304
256 251 248 247 247 247 245 239 231 224 217 210 206 204 201 201 202 202 203 206 207 205 202 197 195 199 212 247 285 305 314 317 318 316 314 311 309 307 306 304 303 302
264 254 250 250 248 246 243 235 224 216 210 204 200 197 196 196 196 198 204 208 205 198 192 192 197 209 237 282 311 325 330 331 328 323 318 313 309 306 304 303 302 300
271 259 252 251 249 244 239 230 220 211 203 196 191 190 191 190 192 201 204 200 195 190 188 192 202 226 268 304 323 333 337 337 334 330 323 316 311 306 303 302 300 299
277 262 253 250 247 241 231 220 211 203 196 190 186 188 189 186 189 197 196 191 189 186 185 192 210 250 288 314 328 334 338 338 337 334 326 319 313 308 304 302 299 298
279 264 254 248 242 232 220 211 204 197 191 187 185 186 185 181 182 186 185 185 186 182 184 201 231 272 302 321 330 335 337 337 337 334 327 320 314 309 306 303 300 298
279 263 250 242 232 220 210 202 197 191 186 184 183 182 181 178 177 180 180 179 181 184 193 217 262 298 318 330 335 338 338 337 336 333 326 320 314 310 307 304 302 300
276 258 243 230 219 209 200 193 189 186 183 180 177 175 177 177 176 177 176 175 177 188 207 243 288 306 322 333 336 338 337 337 336 332 326 320 314 311 308 305 304 301
271 250 233 219 208 200 192 188 185 182 178 175 172 171 172 173 171 169 168 169 171 182 228 270 289 308 323 329 334 337 339 339 337 332 325 319 314 311 308 306 305 304
266 242 225 211 199 192 188 184 181 178 174 171 170 167 164 163 161 156 151 149 144 159 247 288 307 315 319 324 330 337 341 341 338 332 324 317 313 311 309 306 305 305
256 233 214 199 186 180 176 170 166 165 163 162 161 157 153 152 151 144 138 135 134 165 274 307 315 314 314 317 328 338 342 342 338 331 322 316 312 310 308 305 303 301
237 215 200 189 180 173 163 149 139 140 143 144 144 145 145 144 142 134 127 131 142 275 302 304 306 309 310 314 326 338 340 338 335 329 321 316 310 307 305 302 298 295